Weather History for KT65 - July, 2013

Change the Weather History Date:

Tuesday, July 23, 2013

  Actual Average (KMFE) Record (KMFE)
Temperature  
Mean Temperature 88 °F 87 °F  
Max Temperature 98 °F 98 °F 106 °F (2009)
Min Temperature 77 °F 76 °F 65 °F (1945)
Degree Days  
Heating Degree Days 0 0  
Month to date heating degree days 0  
Since 1 June heating degree days 0  
Since 1 July heating degree days 0  
Cooling Degree Days 22 22  
Month to date cooling degree days 496  
Year to date cooling degree days 2379  
Since 1 June cooling degree days 1124  
Growing Degree Days 38 (Base 50)    
Moisture  
Dew Point 71 °F    
Average Humidity 62    
Maximum Humidity 85    
Minimum Humidity 33    
Precipitation  
Precipitation 0.00 in 0.06 in 7.78 in (2008)
Month to date precipitation 1.61  
Year to date precipitation 10.97  
Sea Level Pressure  
Sea Level Pressure 29.95 in    
Wind  
Wind Speed 13 mph (SSE)    
Max Wind Speed 23 mph    
Max Gust Speed 34 mph    
Visibility 8 miles    
Events      
T = Trace of Precipitation, MM = Missing Value Source: NWS Daily Summary

Daily Weather History Graph

Daily Weather History Graph

Search for Another Location

Airport or City:

Trip Planner

Search our weather history database for the weather conditions in past years. The results will help you decide how hot, cold, wet, or windy it might be!

Date:

Astronomy

Jul. 23, 2013 Rise Set
Actual Time 6:53 AM CDT 8:23 PM CDT
Civil Twilight 6:27 AM CDT 8:48 PM CDT
Nautical Twilight 5:57 AM CDT 9:18 PM CDT
Astronomical Twilight 5:26 AM CDT 9:50 PM CDT
Moon 9:08 PM CDT (7/23) 7:51 AM CDT (7/23)
Length of Visible Light 14h 20m
Length of Day
13h 30m
Full, 99% of the Moon is Illuminated
Jul 23
Full
Jul 29
Last Quarter
Aug 6
New
Aug 14
First Quarter
Aug 20
Full

Hourly Weather History & Observations

Time (CDT) Temp. Heat Index Dew Point Humidity Pressure Visibility Wind Dir Wind Speed Gust Speed Precip Events Conditions
12:15 AM 81.9 °F 88.0 °F 74.3 °F 78% 29.98 in 7.0 mi SSE 10.4 mph 18.4 mph N/A   Scattered Clouds
12:35 AM 81.7 °F 87.3 °F 73.8 °F 77% 29.99 in 7.0 mi SSE 10.4 mph - N/A   Clear
12:55 AM 81.5 °F 87.2 °F 73.9 °F 78% 29.98 in 7.0 mi SSE 9.2 mph - N/A   Mostly Cloudy
1:15 AM 81.5 °F 87.2 °F 74.1 °F 78% 29.98 in 7.0 mi SSE 11.5 mph - N/A   Overcast
1:35 AM 81.5 °F 87.2 °F 73.9 °F 78% 29.98 in 7.0 mi SSE 12.7 mph 16.1 mph N/A   Overcast
1:55 AM 81.1 °F 86.4 °F 73.8 °F 78% 29.98 in 7.0 mi SSE 12.7 mph 17.3 mph N/A   Overcast
2:15 AM 80.6 °F 85.4 °F 73.4 °F 79% 29.98 in 7.0 mi SSE 10.4 mph - N/A   Mostly Cloudy
2:35 AM 80.1 °F 84.2 °F 73.0 °F 79% 29.97 in 7.0 mi SSE 9.2 mph - N/A   Mostly Cloudy
2:55 AM 79.9 °F - 72.7 °F 79% 29.97 in 7.0 mi SSE 10.4 mph - N/A   Scattered Clouds
3:15 AM 79.7 °F - 72.5 °F 79% 29.97 in 7.0 mi South 9.2 mph - N/A   Clear
3:35 AM 79.3 °F - 72.5 °F 79% 29.97 in 7.0 mi South 8.1 mph - N/A   Scattered Clouds
3:55 AM 79.2 °F - 72.5 °F 80% 29.97 in 7.0 mi SSE 5.8 mph - N/A   Scattered Clouds
4:15 AM 78.8 °F - 72.5 °F 81% 29.97 in 7.0 mi SSE 5.8 mph - N/A   Mostly Cloudy
4:35 AM 78.8 °F - 72.5 °F 81% 29.97 in 7.0 mi SSE 5.8 mph - N/A   Scattered Clouds
4:55 AM 78.1 °F - 72.5 °F 83% 29.96 in 7.0 mi SSE 5.8 mph - N/A   Clear
5:15 AM 78.1 °F - 72.7 °F 83% 29.97 in 7.0 mi SSE 4.6 mph - N/A   Clear
5:35 AM 77.9 °F - 72.9 °F 84% 29.97 in 7.0 mi SSE 5.8 mph - N/A   Clear
5:55 AM 78.3 °F - 73.0 °F 84% 29.97 in 7.0 mi SE 5.8 mph - N/A   Clear
6:15 AM 78.1 °F - 72.9 °F 84% 29.96 in 7.0 mi SSE 6.9 mph - N/A   Clear
6:35 AM 77.9 °F - 72.7 °F 84% 29.96 in 7.0 mi SSE 8.1 mph - N/A   Clear
6:55 AM 77.9 °F - 72.9 °F 84% 29.96 in 7.0 mi SSE 8.1 mph - N/A   Clear
7:15 AM 77.9 °F - 73.0 °F 85% 29.97 in 7.0 mi South 10.4 mph - N/A   Clear
7:35 AM 78.8 °F - 73.2 °F 83% 29.97 in 7.0 mi South 10.4 mph - N/A   Clear
7:55 AM 79.9 °F - 73.2 °F 80% 29.98 in 7.0 mi South 8.1 mph - N/A   Clear
8:15 AM 81.3 °F 86.5 °F 73.4 °F 77% 29.98 in 7.0 mi South 9.2 mph - N/A   Clear
8:35 AM 82.6 °F 88.6 °F 73.4 °F 74% 29.98 in 7.0 mi South 12.7 mph 18.4 mph N/A   Clear
8:55 AM 84.0 °F 90.5 °F 73.4 °F 70% 29.99 in 5.0 mi SSE 16.1 mph 24.2 mph N/A   Haze
9:15 AM 86.4 °F 93.4 °F 72.9 °F 64% 29.99 in 7.0 mi South 19.6 mph - N/A   Overcast
9:35 AM 85.8 °F 91.5 °F 71.4 °F 62% 30.00 in 7.0 mi South 21.9 mph 25.3 mph N/A   Mostly Cloudy
9:55 AM 86.2 °F 91.4 °F 70.7 °F 60% 29.99 in 7.0 mi South 20.7 mph - N/A   Mostly Cloudy
10:15 AM 88.0 °F 92.9 °F 69.8 °F 55% 29.99 in 7.0 mi South 18.4 mph 26.5 mph N/A   Scattered Clouds
10:35 AM 89.6 °F 93.9 °F 68.9 °F 50% 29.98 in 7.0 mi South 19.6 mph 28.8 mph N/A   Clear
10:55 AM 90.0 °F 94.1 °F 68.5 °F 49% 29.98 in 7.0 mi South 20.7 mph 27.6 mph N/A   Scattered Clouds
11:15 AM 91.8 °F 96.0 °F 68.2 °F 46% 29.98 in 7.0 mi South 19.6 mph 26.5 mph N/A   Scattered Clouds
11:35 AM 92.5 °F 96.4 °F 67.6 °F 44% 29.97 in 7.0 mi South 16.1 mph 26.5 mph N/A   Mostly Cloudy
11:55 AM 93.0 °F 96.4 °F 67.1 °F 42% 29.98 in 7.0 mi South 19.6 mph 26.5 mph N/A   Scattered Clouds
12:15 PM 94.3 °F 97.2 °F 65.8 °F 39% 29.97 in 7.0 mi South 18.4 mph 27.6 mph N/A   Clear
12:35 PM 95.0 °F 97.9 °F 65.8 °F 38% 29.98 in 10.0 mi South 20.7 mph 26.5 mph N/A   Scattered Clouds
12:55 PM 94.1 °F 98.4 °F 67.5 °F 42% 29.97 in 7.0 mi South 16.1 mph 25.3 mph N/A   Mostly Cloudy
1:15 PM 96.3 °F 100.8 °F 67.5 °F 39% 29.96 in 7.0 mi SSE 15.0 mph 24.2 mph N/A   Mostly Cloudy
1:35 PM 96.4 °F 101.7 °F 68.4 °F 40% 29.96 in 7.0 mi SSE 18.4 mph 27.6 mph N/A   Scattered Clouds
1:55 PM 97.2 °F 101.9 °F 68.0 °F 38% 29.95 in 7.0 mi South 23.0 mph 34.5 mph N/A   Scattered Clouds
2:15 PM 97.0 °F 102.2 °F 68.0 °F 39% 29.95 in 7.0 mi SSE 15.0 mph 29.9 mph N/A   Scattered Clouds
2:35 PM 97.9 °F 102.7 °F 67.8 °F 37% 29.94 in 7.0 mi SSE 17.3 mph 27.6 mph N/A   Scattered Clouds
3:15 PM 97.0 °F 101.0 °F 66.9 °F 37% 29.93 in 7.0 mi South 23.0 mph 27.6 mph N/A   Scattered Clouds
3:35 PM 97.5 °F 100.3 °F 65.1 °F 34% 29.93 in 7.0 mi South 20.7 mph 27.6 mph N/A   Scattered Clouds
3:55 PM 97.9 °F 100.3 °F 64.4 °F 33% 29.92 in 7.0 mi South 18.4 mph 28.8 mph N/A   Clear
4:15 PM 98.1 °F 100.7 °F 64.4 °F 33% 29.91 in 7.0 mi SSE 21.9 mph 28.8 mph N/A   Clear
4:35 PM 97.3 °F 100.0 °F 64.6 °F 34% 29.90 in 7.0 mi SSE 15.0 mph 28.8 mph N/A   Clear
4:55 PM 96.6 °F 100.9 °F 67.1 °F 38% 29.89 in 5.0 mi SE 17.3 mph 27.6 mph N/A   Haze
5:15 PM 96.1 °F 101.0 °F 67.8 °F 40% 29.89 in 7.0 mi SSE 17.3 mph 26.5 mph N/A   Clear
5:35 PM 95.2 °F 99.3 °F 67.1 °F 40% 29.88 in 10.0 mi SSE 17.3 mph 27.6 mph N/A   Clear
5:55 PM 94.5 °F 98.5 °F 67.6 °F 41% 29.88 in 7.0 mi SSE 17.3 mph 27.6 mph N/A   Clear
6:15 PM 93.7 °F 97.7 °F 67.6 °F 42% 29.88 in 7.0 mi SSE 20.7 mph 27.6 mph N/A   Clear
6:35 PM 92.7 °F 97.2 °F 68.2 °F 45% 29.89 in 10.0 mi SSE 21.9 mph 26.5 mph N/A   Clear
6:55 PM 91.6 °F 95.7 °F 68.4 °F 46% 29.89 in 10.0 mi SE 19.6 mph 27.6 mph N/A   Clear
7:15 PM 90.5 °F 95.1 °F 68.9 °F 49% 29.89 in 10.0 mi SSE 21.9 mph 28.8 mph N/A   Clear
7:35 PM 89.6 °F 94.3 °F 69.1 °F 51% 29.89 in 10.0 mi SSE 20.7 mph 27.6 mph N/A   Clear
7:55 PM 88.0 °F 93.4 °F 70.3 °F 56% 29.89 in 10.0 mi SE 20.7 mph 27.6 mph N/A   Clear
8:15 PM 86.7 °F 92.1 °F 70.9 °F 59% 29.90 in 10.0 mi SSE 17.3 mph 25.3 mph N/A   Clear
8:35 PM 85.8 °F 91.1 °F 70.9 °F 61% 29.90 in 10.0 mi SSE 13.8 mph 26.5 mph N/A   Clear
8:55 PM 85.1 °F 90.8 °F 71.6 °F 64% 29.91 in 10.0 mi SSE 12.7 mph 21.9 mph N/A   Clear
9:15 PM 84.4 °F 90.0 °F 72.0 °F 66% 29.91 in 10.0 mi SSE 17.3 mph 24.2 mph N/A   Clear
9:35 PM 83.8 °F 89.8 °F 72.5 °F 69% 29.91 in 10.0 mi SSE 13.8 mph 24.2 mph N/A   Clear
9:55 PM 83.3 °F 89.0 °F 72.7 °F 70% 29.91 in 10.0 mi SSE 15.0 mph 20.7 mph N/A   Clear
10:15 PM 82.9 °F 88.5 °F 72.9 °F 71% 29.92 in 10.0 mi SSE 15.0 mph 18.4 mph N/A   Clear
10:35 PM 82.6 °F 88.6 °F 73.4 °F 74% 29.93 in 7.0 mi SSE 12.7 mph 21.9 mph N/A   Clear
10:55 PM 82.4 °F 88.4 °F 73.8 °F 75% 29.93 in 7.0 mi SSE 13.8 mph 19.6 mph N/A   Clear
11:15 PM 82.0 °F 87.9 °F 73.9 °F 76% 29.93 in 7.0 mi SSE 11.5 mph 20.7 mph N/A   Clear
11:35 PM 81.9 °F 88.0 °F 74.3 °F 78% 29.93 in 7.0 mi SE 10.4 mph - N/A   Clear
11:55 PM 81.7 °F 87.8 °F 74.5 °F 79% 29.94 in 7.0 mi SSE 9.2 mph - N/A   Clear